www.pogodaiklimat.ru

Погода и климат >> Архив погоды >> Гана >> Saltpond


ПОГОДА в Saltpond

  • Прогноз погоды в Saltpond
  • Монитор погоды в Saltpond
  • Климат города

АРХИВ ПОГОДЫ в Saltpond

Время (UTC), дата Ветер
(напр.,м/с)
 
Видим.   Явления Облачность Т
(С)
Тd
(С)
f
(%)
Тe
(С)
Тes
(С)
Комфортность P
(гПа)
Po
(гПа)
Тmin
(С)
Tmax
(С)
R
(мм)
R24
(мм)
S
(см)
12 11.12 СВ 1 8000 м мгла 9/0
[Cs]
+30.2 +24.5 72 +43 +60 опасность
перегрева
1010.6 1011.0
15 11.12 СЗ 1 4000 м мгла 8/0
[Ci sp]
+31.0 +23.2 63 +41 +50 опасность
перегрева
1008.7 1009.0
18 11.12 штиль 0 4000 м дымка 6/0
[Ci sp]
+28.2 +25.0 83 +41 +41 опасность
перегрева
1009.7 1010.0 +31.5
06 12.12 штиль 0 4000 м дымка 9/0
[Cs]
+24.0 +23.3 96 +32 +32 очень
душно
1010.4 1010.0 +23.6
12 12.12 Ю 18 3000 м мгла 6/0
[Ac trans Ci sp]
+31.6 +23.9 64 +43 +43 опасность
перегрева
1011.4 1011.0
15 12.12 ЮЗ 1 4000 м мгла 9/0
[Cs]
+30.5 +25.1 73 +44 +53 опасность
перегрева
1008.8 1009.0
18 12.12 ЮЗ 1 4000 м дымка 9/0
[Cs]
+28.5 +25.4 83 +42 +42 опасность
перегрева
1010.5 1011.0 +31.1
21 12.12 штиль 0 4000 м дымка 9/0
[Cs]
+27.5 +25.5 89 +40 +40 очень
душно
1012.6 1013.0
00 13.12 СВ 1 4000 м дымка 6/0
[Ci sp]
+26.5 +25.2 93 +38 +38 очень
душно
1011.8 1012.0
03 13.12 штиль 0 4000 м дымка 5/0
[Ci sp]
+25.7 +24.8 95 +36 +36 очень
душно
1010.5 1011.0
06 13.12 СВ 1 4000 м дымка 8/0
[Cs]
+25.0 +24.3 96 +35 +35 очень
душно
1011.2 1011.0 +24.0
15 13.12 ЮВ 1 4000 м мгла 9/0
[Cs]
+30.8 +26.6 78 +47 +53 опасность
перегрева
1009.1 1009.0
21 13.12 ЮЗ 1 4000 м дымка 9/0
[Cs]
+28.0 +26.4 91 +43 +43 опасность
перегрева
1012.4 1012.0
00 14.12 штиль 0 5000 м дымка 9/0
[Cs]
+27.1 +25.8 93 +40 +40 очень
душно
1011.7 1012.0
06 14.12 СВ 1 4000 м дымка 9/0
[Cs]
+25.5 +24.8 96 +36 +36 очень
душно
1011.1 1011.0 +24.5
09 14.12 З 1 4000 м дымка 9/0
[Cs]
+28.5 +26.4 88 +43 +51 опасность
перегрева
1012.8 1013.0
12 14.12 ЮЗ 1 4000 м мгла 9/0
[Cs]
+31.0 +26.7 78 +48 +66 опасность
перегрева
1011.3 1011.0
15 14.12 ЮЗ 1 4000 м мгла 9/0
[Cs]
+31.2 +27.0 78 +49 +57 опасность
перегрева
1009.4 1009.0
21 14.12 ЮЗ 1 4000 м дымка 9/0
[Cs]
+27.8 +26.6 93 +43 +43 опасность
перегрева
1012.5 1013.0
03 15.12 СЗ 1 4000 м дымка 6/0
[Ci sp]
+26.0 +25.5 97 +38 +38 очень
душно
1011.4 1011.0
06 15.12 штиль 0 6000 м дымка 8/0
[Cs]
+25.5 +24.8 96 +36 +36 очень
душно
1011.5 1012.0 +25.1
09 15.12 ЮЗ 1 8000 м дымка 3/1 420 м
[Cu med, cong Ci sp]
+28.7 +26.6 88 +44 +53 опасность
перегрева
1013.2 1013.0
12 15.12 ЮЗ 2 8000 м дымка 3/3 480 м
[Cu med, cong]
+30.6 +26.6 79 +47 +60 опасность
перегрева
1011.2 1011.0
18 15.12 ЮЗ 2 н/о дымка 1/1 330 м
[Sc]
+26.5 +26.1 98 +40 +40 очень
душно
1009.4 1009.0 +30.8
09 16.12 ЮЗ 2 8000 м дымка 6/6 360 м
[Cu Sc]
+28.8 +27.0 90 +45 +49 опасность
перегрева
1012.0 1012.0
12 16.12 ЮЗ 3 8000 м дымка 3/3 480 м
[Cu med, cong]
+31.0 +27.2 80 +49 +60 опасность
перегрева
1010.4 1010.0
15 16.12 ЮЗ 3 5000 м дымка 1/1 480 м
[Cu med, cong]
+30.8 +27.0 80 +48 +55 опасность
перегрева
1008.4 1008.0
18 16.12 ЮЗ 3 8000 м слабый дождь 9/9 330 м
[Sc]
+25.6 +21.7 79 +33 +33 очень
душно
1010.5 1011.0 +31.2 0.0
06 17.12 СЗ 1 16 км {дождь} 9/5 330 м
[Sc Ac trans]
+23.2 +22.6 96 +32 +32 очень
душно
1010.7 1011.0 +22.5 5
12 17.12 ЮВ 2 16 км 8/0
[Ac trans]
+28.0 +25.5 86 +41 +51 опасность
перегрева
1010.8 1011.0
21 17.12 ЮЗ 1 14 км 9/0
[Cs]
+27.0 +25.7 93 +40 +40 очень
душно
1012.1 1012.0
00 18.12 штиль 0 14 км 9/0
[Ac trans]
+27.0 +25.7 93 +40 +40 очень
душно
1011.5 1012.0
03 18.12 ЮЗ 1 14 км 9/4 330 м
[Sc Ac trans Cs]
+27.0 +26.3 96 +41 +41 опасность
перегрева
1010.4 1010.0
06 18.12 штиль 0 8000 м дымка 9/4 330 м
[Sc Ac trans]
+26.8 +26.1 96 +40 +40 очень
душно
1012.0 1012.0 +26.4

 

Местоположение метеостанции Saltpond (Гана): широта 5.20 долгота -1.07 высота над уровнем моря 47 м.

В архиве по умолчанию представлена погода в Saltpond за последнюю неделю. Архивные данные за месяц целиком и за предыдущие месяцы, начиная с января 2011 года, Вы можете получить, выбрав интересующий диапазон дат из раскрывающегося списка и нажав кнопку "Ввод!".

Внимание! Время в таблицах - всемирное. Для получения местного времени необходимо прибавить поправку, которая в Saltpond равна 1 ч.

Смотрите также архив погоды в соседних городах и на ближайших метеорологических станциях:

Погода в Akim Oda (Гана) (82 км)
Погода в Takoradi (Гана) (85 км)
Погода в Accra (Гана) (109 км)
Погода в Tema (Гана) (127 км)
Погода в Koforidua (Гана) (133 км)
Погода в Axim (Гана) (134 км)
Погода в Akuse (Гана) (165 км)
Погода в Abetifi (Гана) (167 км)
Погода в Sefwi Bekwai (Гана) (178 км)
Погода в Kumasi (Гана) (179 км)

Пояснения к столбцам:

Ветер - указаны скорость ветра в м/с - средняя за 10 мин, порывы в срок и между сроками (в фигурных скобках) и направление, откуда дует ветер: С - северный, СВ - северо-восточный, В - восточный, ЮВ - юго-восточный, Ю - южный, ЮЗ - юго-западный, З - западный, СЗ - северо-западный.
Видимость - горизонтальная дальность видимости в метрах или километрах. При видимости от 1 до 10 км при отсутствии осадков обычно наблюдается дымка, при ухудшении видимости до 1 км и менее - туман. В сухую погоду видимость может ухудшаться дымом, пылью или мглою.
Явления - указаны атмосферные явления, наблюдавшиеся в срок или в последний час перед сроком; фигурными скобками обозначены явления, наблюдавшиеся между сроками (за 1-3 часа до срока); квадратными скобками обозначены град или гололедные отложения с указанием их диаметра в мм.
Облачность - указаны через наклонную черту общая и нижняя облачность в баллах и высота нижней границы облаков в метрах; квадратными скобками обозначены формы облаков: Ci - перистые, Cs - перисто-слоистые, Cc - перисто-кучевые, Ac - высококучевые, As - высокослоистые, Sc - слоисто-кучевые, Ns - слоисто-дождевые, Cu - кучевые, Cb - кучево-дождевые. Подробнее классификацию облаков см. в Атласе облаков (PDF).
T - Температура воздуха - температура, измеренная на высоте 2 м над землей.
Td - Температура точки росы - температура, при понижении до которой содержащийся в воздухе водяной пар достигнет насыщения.
f - Относительная влажность воздуха - влажноcть воздуха, измеренная на высоте 2 м над землей.
Te - Эффективная температура - температура, которую ощущает одетый по сезону человек в тени. Характеристика душности погоды. При расчете учитывается влияние влажности воздуха и скорости ветра на теплоощущения человека.
Tes - Эффективная температура на солнце - температура, которую ощущает человек, с поправкой на солнечный нагрев. Характеристика знойности погоды. Зависит от высоты солнца над горизонтом, облачности и скорости ветра. Ночью, в пасмурную погоду, а также при ветре 12 м/с и более поправка равна нулю.
P - Атмосферное давление - приведенное к уровню моря атмосферное давление.
Po - Атмосферное давление - измеренное на уровне метеостанции атмосферное давление.
Tmin - Минимальная температура - минимум температуры воздуха на высоте 2 м над землей.
Tmax - Максимальная температура - максимум температуры воздуха на высоте 2 м над землей.
R - Количество осадков - Количество выпавших осадков за период времени, мм. При наведении курсора мыши на число - период времени, за который выпало указанное количество осадков.
R24 - Количество осадков - Количество выпавших осадков за 24 часа, мм.
S - Снежный покров - Высота снежного покрова, см. При наведении курсора мыши на число - состояние снежного покрова и степень покрытия местности в баллах.